Back to Top

Language: 

My Weather Underground Personal Weather Station Historical Data with Graphs...

Delerius Weather Station Historical Data
Daily Summary for July 17, 2017 Units:  English    Metric   Both
« Previous Day
Next Day »
Daily Weekly Monthly Yearly Custom
  High: Low: Average:
Temperature: 80.1 °F 51.6 °F 67 °F
Dew Point: 56.2 °F 47.9 °F 50.9 °F
Humidity: 91 % 37 % 59 %
Wind Speed: 11.0 mph 0.0 mph 5.4 mph
Wind Gust: 21.0 mph - -
Wind:- - WNW
Pressure: 30.24 in 30.15 in -
Precipitation: 0.00 in    
Historical Graphs
 
 
Tabular Data for July 17, 2017
Time Temperature Dew Point Pressure Wind Wind Speed Wind Gust Humidity Rainfall Rate (Hourly) solar Conditions
00:03 55.8 °F 49.3 °F 30.23 in WNW 4.0 mph 6.0 mph 79 % 0.00 in 0 W/m2
00:08 55.6 °F 49.2 °F 30.23 in WNW 4.0 mph 7.0 mph 79 % 0.00 in 0 W/m2
00:13 55.2 °F 49.2 °F 30.23 in WNW 4.0 mph 7.0 mph 80 % 0.00 in 0 W/m2
00:18 55.0 °F 49.0 °F 30.23 in WNW 4.0 mph 7.0 mph 80 % 0.00 in 0 W/m2
00:23 54.9 °F 48.8 °F 30.23 in WNW 3.0 mph 6.0 mph 80 % 0.00 in 0 W/m2
00:28 54.7 °F 49.0 °F 30.23 in WNW 3.0 mph 6.0 mph 81 % 0.00 in 0 W/m2
00:33 54.5 °F 48.8 °F 30.23 in WNW 3.0 mph 8.0 mph 81 % 0.00 in 0 W/m2
00:38 54.3 °F 48.9 °F 30.23 in WNW 3.0 mph 8.0 mph 82 % 0.00 in 0 W/m2
00:43 54.3 °F 48.9 °F 30.23 in WNW 4.0 mph 10.0 mph 82 % 0.00 in 0 W/m2
00:48 54.5 °F 49.1 °F 30.23 in WNW 6.0 mph 11.0 mph 82 % 0.00 in 0 W/m2
00:53 54.9 °F 49.1 °F 30.23 in NW 7.0 mph 11.0 mph 81 % 0.00 in 0 W/m2
00:58 55.0 °F 49.3 °F 30.23 in NW 7.0 mph 11.0 mph 81 % 0.00 in 0 W/m2
01:03 55.2 °F 49.2 °F 30.23 in WNW 7.0 mph 11.0 mph 80 % 0.00 in 0 W/m2
01:08 55.4 °F 49.0 °F 30.23 in WNW 7.0 mph 9.0 mph 79 % 0.00 in 0 W/m2
01:13 55.4 °F 49.0 °F 30.23 in WNW 6.0 mph 9.0 mph 79 % 0.00 in 0 W/m2
01:19 55.2 °F 48.8 °F 30.24 in WNW 5.0 mph 8.0 mph 79 % 0.00 in 0 W/m2
01:24 55.2 °F 48.8 °F 30.24 in WNW 5.0 mph 8.0 mph 79 % 0.00 in 0 W/m2
01:29 55.0 °F 48.6 °F 30.24 in WNW 5.0 mph 8.0 mph 79 % 0.00 in 0 W/m2
01:34 55.0 °F 48.6 °F 30.24 in WNW 4.0 mph 8.0 mph 79 % 0.00 in 0 W/m2
01:39 54.9 °F 48.5 °F 30.23 in WNW 4.0 mph 6.0 mph 79 % 0.00 in 0 W/m2
01:44 54.7 °F 48.3 °F 30.23 in WNW 5.0 mph 8.0 mph 79 % 0.00 in 0 W/m2
01:49 54.7 °F 48.3 °F 30.23 in WNW 6.0 mph 8.0 mph 79 % 0.00 in 0 W/m2
01:54 54.7 °F 48.3 °F 30.23 in WNW 6.0 mph 8.0 mph 79 % 0.00 in 0 W/m2
01:59 54.7 °F 48.3 °F 30.23 in WNW 6.0 mph 8.0 mph 79 % 0.00 in 0 W/m2
02:04 54.3 °F 47.9 °F 30.23 in WNW 5.0 mph 8.0 mph 79 % 0.00 in 0 W/m2
02:09 54.1 °F 48.1 °F 30.23 in WNW 5.0 mph 8.0 mph 80 % 0.00 in 0 W/m2
02:14 54.0 °F 48.3 °F 30.23 in WNW 3.0 mph 8.0 mph 81 % 0.00 in 0 W/m2
02:19 53.8 °F 48.1 °F 30.23 in NW 2.0 mph 6.0 mph 81 % 0.00 in 0 W/m2
02:24 53.8 °F 48.1 °F 30.23 in WNW 3.0 mph 6.0 mph 81 % 0.00 in 0 W/m2
02:29 53.6 °F 48.2 °F 30.23 in WNW 4.0 mph 7.0 mph 82 % 0.00 in 0 W/m2
02:34 53.6 °F 48.2 °F 30.23 in WNW 4.0 mph 7.0 mph 82 % 0.00 in 0 W/m2
02:39 53.6 °F 48.2 °F 30.23 in WNW 4.0 mph 7.0 mph 82 % 0.00 in 0 W/m2
02:44 53.6 °F 48.2 °F 30.23 in WNW 2.0 mph 7.0 mph 82 % 0.00 in 0 W/m2
02:49 53.4 °F 48.1 °F 30.23 in WNW 1.0 mph 4.0 mph 82 % 0.00 in 0 W/m2
02:54 53.2 °F 48.2 °F 30.23 in WNW 1.0 mph 5.0 mph 83 % 0.00 in 0 W/m2
02:59 53.2 °F 48.5 °F 30.23 in WNW 3.0 mph 7.0 mph 84 % 0.00 in 0 W/m2
03:04 53.2 °F 48.5 °F 30.23 in WNW 4.0 mph 7.0 mph 84 % 0.00 in 0 W/m2
03:09 53.2 °F 48.5 °F 30.23 in WNW 3.0 mph 7.0 mph 84 % 0.00 in 0 W/m2
03:14 53.1 °F 48.4 °F 30.23 in WNW 2.0 mph 5.0 mph 84 % 0.00 in 0 W/m2
03:19 53.1 °F 48.7 °F 30.23 in WNW 3.0 mph 6.0 mph 85 % 0.00 in 0 W/m2
03:24 52.9 °F 48.5 °F 30.23 in WNW 4.0 mph 6.0 mph 85 % 0.00 in 0 W/m2
03:29 52.9 °F 48.5 °F 30.23 in WNW 3.0 mph 7.0 mph 85 % 0.00 in 0 W/m2
03:34 52.9 °F 48.5 °F 30.23 in WNW 2.0 mph 7.0 mph 85 % 0.00 in 0 W/m2
03:39 52.9 °F 48.8 °F 30.23 in WNW 2.0 mph 6.0 mph 86 % 0.00 in 0 W/m2
03:44 52.7 °F 48.6 °F 30.23 in WNW 2.0 mph 6.0 mph 86 % 0.00 in 0 W/m2
03:49 52.7 °F 48.6 °F 30.22 in WNW 1.0 mph 5.0 mph 86 % 0.00 in 0 W/m2
03:54 52.5 °F 48.5 °F 30.22 in WNW 1.0 mph 4.0 mph 86 % 0.00 in 0 W/m2
03:59 52.3 °F 48.3 °F 30.22 in Calm   1.0 mph 86 % 0.00 in 0 W/m2
04:04 52.3 °F 48.3 °F 30.22 in Calm   2.0 mph 86 % 0.00 in 0 W/m2
04:09 52.2 °F 48.1 °F 30.22 in WNW 1.0 mph 5.0 mph 86 % 0.00 in 0 W/m2
04:14 52.0 °F 48.2 °F 30.22 in WNW 3.0 mph 6.0 mph 87 % 0.00 in 0 W/m2
04:19 52.2 °F 48.7 °F 30.22 in WNW 4.0 mph 8.0 mph 88 % 0.00 in 0 W/m2
04:24 52.3 °F 48.9 °F 30.22 in WNW 5.0 mph 9.0 mph 88 % 0.00 in 0 W/m2
04:29 52.5 °F 49.4 °F 30.22 in WNW 5.0 mph 10.0 mph 89 % 0.00 in 0 W/m2
04:34 52.7 °F 49.5 °F 30.22 in WNW 4.0 mph 10.0 mph 89 % 0.00 in 0 W/m2
04:39 52.7 °F 49.2 °F 30.22 in WNW 2.0 mph 7.0 mph 88 % 0.00 in 0 W/m2
04:44 52.3 °F 48.6 °F 30.23 in WNW 1.0 mph 6.0 mph 87 % 0.00 in 0 W/m2
04:49 52.2 °F 48.4 °F 30.22 in Calm     87 % 0.00 in 0 W/m2
04:54 52.0 °F 48.5 °F 30.22 in Calm     88 % 0.00 in 0 W/m2
05:00 51.8 °F 48.4 °F 30.22 in Calm   2.0 mph 88 % 0.00 in 5 W/m2
05:05 51.6 °F 48.5 °F 30.23 in Calm   2.0 mph 89 % 0.00 in 7 W/m2
05:10 51.6 °F 48.5 °F 30.22 in WNW 1.0 mph 4.0 mph 89 % 0.00 in 9 W/m2
05:15 51.6 °F 48.8 °F 30.22 in WNW 2.0 mph 6.0 mph 90 % 0.00 in 9 W/m2
05:20 51.8 °F 49.0 °F 30.23 in WNW 3.0 mph 6.0 mph 90 % 0.00 in 11 W/m2
05:25 52.0 °F 49.4 °F 30.23 in WNW 3.0 mph 6.0 mph 91 % 0.00 in 12 W/m2
05:30 52.2 °F 49.6 °F 30.23 in West 3.0 mph 8.0 mph 91 % 0.00 in 14 W/m2
05:35 52.3 °F 49.8 °F 30.22 in West 3.0 mph 8.0 mph 91 % 0.00 in 18 W/m2
05:40 52.5 °F 50.0 °F 30.22 in WNW 4.0 mph 8.0 mph 91 % 0.00 in 19 W/m2
05:45 52.7 °F 50.1 °F 30.22 in WNW 4.0 mph 8.0 mph 91 % 0.00 in 21 W/m2
05:50 52.9 °F 50.0 °F 30.22 in WNW 4.0 mph 7.0 mph 90 % 0.00 in 23 W/m2
05:55 52.9 °F 50.0 °F 30.22 in WNW 4.0 mph 6.0 mph 90 % 0.00 in 25 W/m2
06:00 53.1 °F 50.2 °F 30.22 in WNW 4.0 mph 6.0 mph 90 % 0.00 in 28 W/m2
06:05 53.2 °F 50.4 °F 30.22 in WNW 5.0 mph 7.0 mph 90 % 0.00 in 30 W/m2
06:10 53.2 °F 50.1 °F 30.22 in WNW 5.0 mph 7.0 mph 89 % 0.00 in 88 W/m2
06:15 53.6 °F 50.4 °F 30.22 in WNW 4.0 mph 7.0 mph 89 % 0.00 in 104 W/m2
06:20 54.0 °F 50.8 °F 30.22 in WNW 4.0 mph 7.0 mph 89 % 0.00 in 90 W/m2
06:25 54.5 °F 50.7 °F 30.23 in West 3.0 mph 9.0 mph 87 % 0.00 in 107 W/m2
06:30 54.9 °F 50.8 °F 30.22 in West 4.0 mph 9.0 mph 86 % 0.00 in 40 W/m2
06:35 55.2 °F 50.8 °F 30.22 in West 3.0 mph 7.0 mph 85 % 0.00 in 47 W/m2
06:40 55.8 °F 50.7 °F 30.22 in West 3.0 mph 9.0 mph 83 % 0.00 in 42 W/m2
06:45 56.1 °F 50.7 °F 30.22 in West 3.0 mph 9.0 mph 82 % 0.00 in 53 W/m2
06:50 56.5 °F 50.7 °F 30.22 in West 3.0 mph 8.0 mph 81 % 0.00 in 47 W/m2
06:55 56.8 °F 50.7 °F 30.22 in WNW 4.0 mph 8.0 mph 80 % 0.00 in 63 W/m2
07:00 57.2 °F 50.4 °F 30.22 in WNW 5.0 mph 11.0 mph 78 % 0.00 in 56 W/m2
07:05 57.7 °F 49.9 °F 30.22 in WNW 6.0 mph 11.0 mph 75 % 0.00 in 65 W/m2
07:10 58.3 °F 49.7 °F 30.22 in WNW 7.0 mph 12.0 mph 73 % 0.00 in 63 W/m2
07:15 58.8 °F 49.1 °F 30.22 in WNW 8.0 mph 16.0 mph 70 % 0.00 in 67 W/m2
07:20 59.4 °F 48.8 °F 30.22 in WNW 10.0 mph 16.0 mph 68 % 0.00 in 179 W/m2
07:25 59.7 °F 49.1 °F 30.22 in WNW 8.0 mph 15.0 mph 68 % 0.00 in 253 W/m2
07:30 60.4 °F 49.0 °F 30.22 in WNW 7.0 mph 13.0 mph 66 % 0.00 in 279 W/m2
07:31 60.4 °F 49.0 °F 30.22 in WNW 7.0 mph 15.0 mph 66 % 0.00 in 281 W/m2
07:36 61.0 °F 49.1 °F 30.22 in WNW 8.0 mph 15.0 mph 65 % 0.00 in 308 W/m2
07:41 61.3 °F 48.6 °F 30.21 in WNW 8.0 mph 18.0 mph 63 % 0.00 in 237 W/m2
07:46 61.9 °F 48.7 °F 30.22 in WNW 9.0 mph 19.0 mph 62 % 0.00 in 315 W/m2
07:51 62.2 °F 48.6 °F 30.22 in WNW 10.0 mph 19.0 mph 61 % 0.00 in 346 W/m2
07:56 62.8 °F 48.7 °F 30.22 in WNW 9.0 mph 15.0 mph 60 % 0.00 in 366 W/m2
08:01 63.3 °F 48.7 °F 30.22 in WNW 7.0 mph 16.0 mph 59 % 0.00 in 381 W/m2
08:02 63.3 °F 48.7 °F 30.22 in NW 7.0 mph 16.0 mph 59 % 0.00 in 387 W/m2
08:07 63.7 °F 48.2 °F 30.22 in WNW 8.0 mph 21.0 mph 57 % 0.00 in 350 W/m2
08:12 63.9 °F 48.8 °F 30.22 in WNW 10.0 mph 21.0 mph 58 % 0.00 in 399 W/m2
08:17 64.2 °F 49.1 °F 30.23 in WNW 9.0 mph 15.0 mph 58 % 0.00 in 408 W/m2
08:22 64.6 °F 49.5 °F 30.22 in NW 8.0 mph 15.0 mph 58 % 0.00 in 406 W/m2
08:27 64.9 °F 49.3 °F 30.23 in WNW 8.0 mph 16.0 mph 57 % 0.00 in 427 W/m2
08:33 64.9 °F 49.8 °F 30.23 in WNW 9.0 mph 16.0 mph 58 % 0.00 in 434 W/m2
08:38 65.3 °F 50.1 °F 30.23 in WNW 7.0 mph 14.0 mph 58 % 0.00 in 473 W/m2
08:43 65.8 °F 50.2 °F 30.23 in WNW 6.0 mph 12.0 mph 57 % 0.00 in 478 W/m2
08:48 66.4 °F 50.7 °F 30.23 in WNW 6.0 mph 11.0 mph 57 % 0.00 in 489 W/m2
08:53 66.9 °F 50.7 °F 30.23 in WNW 5.0 mph 11.0 mph 56 % 0.00 in 476 W/m2
08:58 67.3 °F 50.6 °F 30.23 in WNW 4.0 mph 8.0 mph 55 % 0.00 in 504 W/m2
09:03 67.5 °F 50.7 °F 30.23 in West 6.0 mph 12.0 mph 55 % 0.00 in 533 W/m2
09:08 67.5 °F 50.2 °F 30.23 in West 7.0 mph 12.0 mph 54 % 0.00 in 536 W/m2
09:13 67.5 °F 50.7 °F 30.23 in West 6.0 mph 11.0 mph 55 % 0.00 in 548 W/m2
09:18 68.0 °F 50.7 °F 30.23 in WNW 4.0 mph 9.0 mph 54 % 0.00 in 564 W/m2
09:23 68.9 °F 51.6 °F 30.23 in NW 5.0 mph 9.0 mph 54 % 0.00 in 577 W/m2
09:28 69.3 °F 51.4 °F 30.23 in NW 5.0 mph 10.0 mph 53 % 0.00 in 589 W/m2
09:33 69.3 °F 51.4 °F 30.23 in NW 6.0 mph 12.0 mph 53 % 0.00 in 601 W/m2
09:38 69.4 °F 51.6 °F 30.23 in NW 7.0 mph 13.0 mph 53 % 0.00 in 613 W/m2
09:43 69.6 °F 51.2 °F 30.23 in NW 8.0 mph 15.0 mph 52 % 0.00 in 622 W/m2
09:48 69.4 °F 51.0 °F 30.23 in NW 9.0 mph 15.0 mph 52 % 0.00 in 633 W/m2
09:53 69.4 °F 51.6 °F 30.23 in NW 8.0 mph 14.0 mph 53 % 0.00 in 631 W/m2
09:58 69.4 °F 51.6 °F 30.23 in WNW 8.0 mph 13.0 mph 53 % 0.00 in 656 W/m2
10:03 69.6 °F 51.2 °F 30.23 in WNW 8.0 mph 13.0 mph 52 % 0.00 in 649 W/m2
10:08 70.0 °F 52.1 °F 30.23 in NW 6.0 mph 13.0 mph 53 % 0.00 in 663 W/m2
10:13 70.5 °F 52.0 °F 30.23 in NW 6.0 mph 14.0 mph 52 % 0.00 in 684 W/m2
10:18 70.7 °F 51.7 °F 30.23 in NW 7.0 mph 14.0 mph 51 % 0.00 in 686 W/m2
10:23 70.9 °F 52.4 °F 30.23 in NW 7.0 mph 13.0 mph 52 % 0.00 in 700 W/m2
10:28 71.4 °F 51.8 °F 30.23 in NW 7.0 mph 13.0 mph 50 % 0.00 in 717 W/m2
10:33 71.6 °F 52.0 °F 30.23 in WNW 8.0 mph 15.0 mph 50 % 0.00 in 728 W/m2
10:38 71.8 °F 52.1 °F 30.22 in WNW 9.0 mph 15.0 mph 50 % 0.00 in 737 W/m2
10:43 71.8 °F 52.1 °F 30.22 in NW 8.0 mph 14.0 mph 50 % 0.00 in 745 W/m2
10:48 72.1 °F 51.4 °F 30.22 in NW 9.0 mph 16.0 mph 48 % 0.00 in 754 W/m2
10:53 72.1 °F 51.4 °F 30.22 in WNW 10.0 mph 18.0 mph 48 % 0.00 in 765 W/m2
10:58 72.3 °F 51.5 °F 30.22 in WNW 9.0 mph 18.0 mph 48 % 0.00 in 770 W/m2
11:03 72.5 °F 51.7 °F 30.22 in WNW 8.0 mph 15.0 mph 48 % 0.00 in 780 W/m2
11:08 72.9 °F 52.6 °F 30.21 in WNW 8.0 mph 13.0 mph 49 % 0.00 in 788 W/m2
11:13 73.0 °F 52.2 °F 30.21 in WNW 8.0 mph 14.0 mph 48 % 0.00 in 780 W/m2
11:18 73.2 °F 51.8 °F 30.21 in WNW 9.0 mph 14.0 mph 47 % 0.00 in 780 W/m2
11:24 73.4 °F 51.4 °F 30.21 in WNW 9.0 mph 16.0 mph 46 % 0.00 in 812 W/m2
11:29 73.2 °F 51.8 °F 30.21 in West 9.0 mph 16.0 mph 47 % 0.00 in 819 W/m2
11:34 73.6 °F 52.7 °F 30.21 in WNW 8.0 mph 13.0 mph 48 % 0.00 in 810 W/m2
11:39 73.9 °F 53.0 °F 30.21 in WNW 9.0 mph 15.0 mph 48 % 0.00 in 828 W/m2
11:44 74.1 °F 52.0 °F 30.21 in WNW 8.0 mph 15.0 mph 46 % 0.00 in 835 W/m2
11:49 74.7 °F 52.5 °F 30.21 in WNW 8.0 mph 14.0 mph 46 % 0.00 in 837 W/m2
11:54 74.7 °F 52.5 °F 30.21 in WNW 8.0 mph 13.0 mph 46 % 0.00 in 842 W/m2
11:59 75.0 °F 53.4 °F 30.21 in NW 7.0 mph 12.0 mph 47 % 0.00 in 846 W/m2
12:04 75.4 °F 53.2 °F 30.21 in WNW 8.0 mph 12.0 mph 46 % 0.00 in 846 W/m2
12:09 75.4 °F 52.6 °F 30.20 in WNW 9.0 mph 15.0 mph 45 % 0.00 in 854 W/m2
12:14 75.4 °F 52.6 °F 30.20 in WNW 10.0 mph 15.0 mph 45 % 0.00 in 856 W/m2
12:19 75.4 °F 53.2 °F 30.20 in WNW 9.0 mph 15.0 mph 46 % 0.00 in 861 W/m2
12:24 75.7 °F 54.1 °F 30.20 in WNW 8.0 mph 14.0 mph 47 % 0.00 in 860 W/m2
12:29 75.7 °F 53.5 °F 30.20 in WNW 8.0 mph 14.0 mph 46 % 0.00 in 868 W/m2
12:34 75.9 °F 53.6 °F 30.20 in WNW 8.0 mph 13.0 mph 46 % 0.00 in 865 W/m2
12:39 76.5 °F 54.7 °F 30.20 in WNW 7.0 mph 13.0 mph 47 % 0.00 in 870 W/m2
12:44 76.6 °F 54.3 °F 30.20 in WNW 7.0 mph 13.0 mph 46 % 0.00 in 872 W/m2
12:49 76.5 °F 54.1 °F 30.20 in West 10.0 mph 16.0 mph 46 % 0.00 in 877 W/m2
12:54 76.3 °F 54.0 °F 30.20 in West 11.0 mph 16.0 mph 46 % 0.00 in 874 W/m2
12:59 76.3 °F 54.6 °F 30.20 in West 9.0 mph 16.0 mph 47 % 0.00 in 875 W/m2
13:04 76.5 °F 54.7 °F 30.20 in WNW 8.0 mph 13.0 mph 47 % 0.00 in 874 W/m2
13:09 76.8 °F 54.5 °F 30.20 in WNW 8.0 mph 14.0 mph 46 % 0.00 in 875 W/m2
13:14 76.8 °F 55.6 °F 30.20 in West 7.0 mph 14.0 mph 48 % 0.00 in 875 W/m2
13:19 77.2 °F 55.4 °F 30.19 in West 6.0 mph 13.0 mph 47 % 0.00 in 874 W/m2
13:24 77.7 °F 55.9 °F 30.19 in WNW 7.0 mph 13.0 mph 47 % 0.00 in 875 W/m2
13:29 78.1 °F 56.2 °F 30.19 in West 7.0 mph 12.0 mph 47 % 0.00 in 877 W/m2
13:34 78.3 °F 55.8 °F 30.19 in West 8.0 mph 14.0 mph 46 % 0.00 in 877 W/m2
13:39 78.3 °F 55.2 °F 30.19 in West 9.0 mph 15.0 mph 45 % 0.00 in 870 W/m2
13:44 78.3 °F 53.9 °F 30.19 in WNW 8.0 mph 19.0 mph 43 % 0.00 in 870 W/m2
13:49 78.4 °F 54.7 °F 30.19 in NW 8.0 mph 19.0 mph 44 % 0.00 in 874 W/m2
13:59 79.2 °F 55.4 °F 30.19 in WNW 6.0 mph 10.0 mph 44 % 0.00 in 863 W/m2
14:04 79.2 °F 55.4 °F 30.19 in WNW 6.0 mph 11.0 mph 44 % 0.00 in 863 W/m2
14:09 79.3 °F 54.9 °F 30.19 in WNW 7.0 mph 15.0 mph 43 % 0.00 in 856 W/m2
14:14 79.3 °F 54.3 °F 30.18 in WNW 7.0 mph 15.0 mph 42 % 0.00 in 849 W/m2
14:19 79.2 °F 54.1 °F 30.18 in NW 6.0 mph 13.0 mph 42 % 0.00 in 828 W/m2
14:24 79.5 °F 54.4 °F 30.18 in NW 7.0 mph 13.0 mph 42 % 0.00 in 830 W/m2
14:29 79.9 °F 54.1 °F 30.18 in NW 7.0 mph 13.0 mph 41 % 0.00 in 759 W/m2
14:34 79.5 °F 53.8 °F 30.18 in WNW 8.0 mph 12.0 mph 41 % 0.00 in 775 W/m2
14:39 79.5 °F 54.4 °F 30.18 in WNW 9.0 mph 15.0 mph 42 % 0.00 in 821 W/m2
14:44 79.9 °F 53.4 °F 30.18 in WNW 9.0 mph 15.0 mph 40 % 0.00 in 793 W/m2
14:49 79.5 °F 53.8 °F 30.18 in NW 8.0 mph 14.0 mph 41 % 0.00 in 810 W/m2
14:50 79.5 °F 53.8 °F 30.18 in NW 9.0 mph 14.0 mph 41 % 0.00 in 798 W/m2
14:55 79.5 °F 53.8 °F 30.18 in NW 8.0 mph 15.0 mph 41 % 0.00 in 788 W/m2
14:56 79.5 °F 53.8 °F 30.18 in NW 8.0 mph 15.0 mph 41 % 0.00 in 796 W/m2
15:01 79.7 °F 55.2 °F 30.18 in NW 7.0 mph 15.0 mph 43 % 0.00 in 814 W/m2
15:06 79.7 °F 54.6 °F 30.18 in NW 7.0 mph 13.0 mph 42 % 0.00 in 780 W/m2
15:11 79.7 °F 53.9 °F 30.18 in NW 8.0 mph 14.0 mph 41 % 0.00 in 800 W/m2
15:16 79.9 °F 54.1 °F 30.18 in WNW 9.0 mph 15.0 mph 41 % 0.00 in 805 W/m2
15:21 79.9 °F 54.7 °F 30.18 in WNW 9.0 mph 15.0 mph 42 % 0.00 in 788 W/m2
15:26 79.5 °F 54.4 °F 30.18 in WNW 9.0 mph 15.0 mph 42 % 0.00 in 772 W/m2
15:31 79.7 °F 53.9 °F 30.18 in WNW 8.0 mph 15.0 mph 41 % 0.00 in 773 W/m2
15:36 79.5 °F 53.8 °F 30.18 in NW 8.0 mph 14.0 mph 41 % 0.00 in 761 W/m2
15:41 79.3 °F 53.6 °F 30.18 in NNW 8.0 mph 14.0 mph 41 % 0.00 in 670 W/m2
15:46 79.5 °F 53.1 °F 30.17 in NNW 8.0 mph 15.0 mph 40 % 0.00 in 687 W/m2
15:51 79.5 °F 53.8 °F 30.17 in NW 8.0 mph 16.0 mph 41 % 0.00 in 745 W/m2
15:56 79.5 °F 53.1 °F 30.17 in NW 9.0 mph 16.0 mph 40 % 0.00 in 719 W/m2
16:01 79.7 °F 52.5 °F 30.17 in NW 9.0 mph 15.0 mph 39 % 0.00 in 694 W/m2
16:07 79.9 °F 52.7 °F 30.17 in NW 8.0 mph 15.0 mph 39 % 0.00 in 700 W/m2
16:12 80.1 °F 52.9 °F 30.17 in WNW 8.0 mph 13.0 mph 39 % 0.00 in 696 W/m2
16:17 80.1 °F 52.2 °F 30.17 in NW 8.0 mph 13.0 mph 38 % 0.00 in 663 W/m2
16:22 80.1 °F 52.9 °F 30.17 in NW 8.0 mph 14.0 mph 39 % 0.00 in 664 W/m2
16:27 79.9 °F 52.7 °F 30.17 in NW 8.0 mph 15.0 mph 39 % 0.00 in 626 W/m2
16:32 79.7 °F 51.1 °F 30.17 in NW 10.0 mph 19.0 mph 37 % 0.00 in 617 W/m2
16:37 79.7 °F 52.5 °F 30.17 in NW 9.0 mph 19.0 mph 39 % 0.00 in 513 W/m2
16:38 79.7 °F 52.5 °F 30.17 in WNW 9.0 mph 18.0 mph 39 % 0.00 in 534 W/m2
16:43 79.3 °F 51.5 °F 30.16 in WNW 9.0 mph 16.0 mph 38 % 0.00 in 633 W/m2
16:48 79.3 °F 52.2 °F 30.16 in WNW 9.0 mph 16.0 mph 39 % 0.00 in 557 W/m2
16:53 79.2 °F 52.8 °F 30.16 in NW 7.0 mph 14.0 mph 40 % 0.00 in 519 W/m2
16:58 79.3 °F 52.9 °F 30.16 in NW 6.0 mph 12.0 mph 40 % 0.00 in 578 W/m2
17:03 79.3 °F 52.2 °F 30.16 in WNW 8.0 mph 15.0 mph 39 % 0.00 in 587 W/m2
17:08 79.3 °F 52.2 °F 30.16 in WNW 9.0 mph 16.0 mph 39 % 0.00 in 570 W/m2
17:13 79.2 °F 52.1 °F 30.16 in NW 8.0 mph 16.0 mph 39 % 0.00 in 501 W/m2
17:18 79.2 °F 52.1 °F 30.16 in WNW 8.0 mph 14.0 mph 39 % 0.00 in 459 W/m2
17:23 79.2 °F 50.6 °F 30.16 in WNW 8.0 mph 14.0 mph 37 % 0.00 in 489 W/m2
17:28 79.2 °F 51.4 °F 30.16 in NW 8.0 mph 16.0 mph 38 % 0.00 in 508 W/m2
17:33 79.0 °F 51.9 °F 30.16 in NW 8.0 mph 16.0 mph 39 % 0.00 in 478 W/m2
17:38 78.8 °F 50.3 °F 30.16 in WNW 8.0 mph 15.0 mph 37 % 0.00 in 401 W/m2
17:43 78.6 °F 50.2 °F 30.16 in WNW 7.0 mph 16.0 mph 37 % 0.00 in 445 W/m2
17:48 78.6 °F 50.9 °F 30.16 in WNW 8.0 mph 16.0 mph 38 % 0.00 in 446 W/m2
17:53 78.6 °F 51.6 °F 30.16 in NW 7.0 mph 14.0 mph 39 % 0.00 in 464 W/m2
17:58 79.0 °F 51.2 °F 30.16 in WNW 7.0 mph 12.0 mph 38 % 0.00 in 420 W/m2
18:04 79.0 °F 50.5 °F 30.15 in WNW 8.0 mph 12.0 mph 37 % 0.00 in 431 W/m2
18:09 78.8 °F 50.3 °F 30.16 in WNW 8.0 mph 14.0 mph 37 % 0.00 in 424 W/m2
18:14 78.6 °F 50.2 °F 30.15 in WNW 8.0 mph 14.0 mph 37 % 0.00 in 388 W/m2
18:19 78.6 °F 50.9 °F 30.15 in WNW 7.0 mph 14.0 mph 38 % 0.00 in 383 W/m2
18:24 78.6 °F 50.9 °F 30.15 in WNW 7.0 mph 12.0 mph 38 % 0.00 in 346 W/m2
18:29 78.6 °F 51.6 °F 30.15 in WNW 7.0 mph 14.0 mph 39 % 0.00 in 353 W/m2
18:34 78.6 °F 50.9 °F 30.15 in WNW 7.0 mph 14.0 mph 38 % 0.00 in 336 W/m2
18:39 78.4 °F 50.7 °F 30.15 in WNW 7.0 mph 12.0 mph 38 % 0.00 in 320 W/m2
18:44 78.3 °F 50.6 °F 30.15 in WNW 6.0 mph 11.0 mph 38 % 0.00 in 306 W/m2
18:49 78.3 °F 50.6 °F 30.15 in WNW 5.0 mph 11.0 mph 38 % 0.00 in 279 W/m2
18:54 78.3 °F 50.6 °F 30.16 in WNW 5.0 mph 10.0 mph 38 % 0.00 in 260 W/m2
18:59 78.3 °F 50.6 °F 30.15 in WNW 5.0 mph 10.0 mph 38 % 0.00 in 265 W/m2
19:04 77.9 °F 50.2 °F 30.15 in West 6.0 mph 13.0 mph 38 % 0.00 in 253 W/m2
19:09 77.4 °F 50.5 °F 30.15 in West 7.0 mph 13.0 mph 39 % 0.00 in 237 W/m2
19:14 77.0 °F 50.1 °F 30.16 in West 7.0 mph 12.0 mph 39 % 0.00 in 223 W/m2
19:19 76.8 °F 50.7 °F 30.16 in WNW 6.0 mph 12.0 mph 40 % 0.00 in 211 W/m2
19:24 76.8 °F 50.7 °F 30.16 in WNW 5.0 mph 9.0 mph 40 % 0.00 in 199 W/m2
19:29 76.6 °F 50.5 °F 30.16 in WNW 6.0 mph 11.0 mph 40 % 0.00 in 185 W/m2
19:34 76.3 °F 50.2 °F 30.15 in WNW 7.0 mph 11.0 mph 40 % 0.00 in 165 W/m2
19:39 76.3 °F 50.8 °F 30.16 in NW 6.0 mph 11.0 mph 41 % 0.00 in 162 W/m2
19:44 76.1 °F 50.0 °F 30.15 in NW 5.0 mph 10.0 mph 40 % 0.00 in 144 W/m2
19:49 75.7 °F 49.7 °F 30.16 in NW 6.0 mph 11.0 mph 40 % 0.00 in 139 W/m2
19:54 75.6 °F 50.2 °F 30.16 in NW 6.0 mph 11.0 mph 41 % 0.00 in 127 W/m2
19:59 75.2 °F 49.9 °F 30.16 in WNW 6.0 mph 11.0 mph 41 % 0.00 in 95 W/m2
20:04 74.8 °F 50.2 °F 30.16 in WNW 6.0 mph 11.0 mph 42 % 0.00 in 60 W/m2
20:09 74.3 °F 49.7 °F 30.16 in WNW 5.0 mph 9.0 mph 42 % 0.00 in 37 W/m2
20:14 73.8 °F 49.9 °F 30.16 in WNW 5.0 mph 9.0 mph 43 % 0.00 in 33 W/m2
20:19 73.4 °F 50.2 °F 30.16 in WNW 5.0 mph 9.0 mph 44 % 0.00 in 33 W/m2
20:24 72.9 °F 50.3 °F 30.16 in NW 4.0 mph 7.0 mph 45 % 0.00 in 33 W/m2
20:29 72.5 °F 50.5 °F 30.16 in NW 3.0 mph 7.0 mph 46 % 0.00 in 32 W/m2
20:34 72.1 °F 50.2 °F 30.16 in NW 3.0 mph 6.0 mph 46 % 0.00 in 30 W/m2
20:35 72.0 °F 50.6 °F 30.16 in NW 3.0 mph 6.0 mph 47 % 0.00 in 30 W/m2
20:40 71.8 °F 51.0 °F 30.16 in NW 3.0 mph 6.0 mph 48 % 0.00 in 28 W/m2
20:45 71.4 °F 51.3 °F 30.16 in NW 2.0 mph 6.0 mph 49 % 0.00 in 26 W/m2
20:50 71.1 °F 50.9 °F 30.16 in NW 2.0 mph 6.0 mph 49 % 0.00 in 23 W/m2
20:56 70.9 °F 51.3 °F 30.16 in NW 2.0 mph 5.0 mph 50 % 0.00 in 21 W/m2
21:01 70.3 °F 50.8 °F 30.16 in NW 3.0 mph 6.0 mph 50 % 0.00 in 19 W/m2
21:06 70.0 °F 49.9 °F 30.16 in WNW 3.0 mph 7.0 mph 49 % 0.00 in 16 W/m2
21:11 69.4 °F 50.0 °F 30.16 in WNW 3.0 mph 7.0 mph 50 % 0.00 in 14 W/m2
21:16 69.3 °F 49.8 °F 30.16 in NW 3.0 mph 6.0 mph 50 % 0.00 in 12 W/m2
21:21 68.9 °F 49.5 °F 30.16 in NW 2.0 mph 6.0 mph 50 % 0.00 in 12 W/m2
21:26 68.5 °F 50.2 °F 30.17 in NW 1.0 mph 4.0 mph 52 % 0.00 in 11 W/m2
21:31 68.2 °F 49.9 °F 30.17 in NW 1.0 mph 6.0 mph 52 % 0.00 in 9 W/m2
21:36 67.6 °F 49.4 °F 30.17 in NW 3.0 mph 7.0 mph 52 % 0.00 in 5 W/m2
21:41 67.5 °F 50.2 °F 30.16 in NW 3.0 mph 7.0 mph 54 % 0.00 in 0 W/m2
21:46 67.1 °F 50.4 °F 30.17 in NW 2.0 mph 6.0 mph 55 % 0.00 in 0 W/m2
21:51 66.7 °F 52.0 °F 30.17 in WNW 2.0 mph 6.0 mph 59 % 0.00 in 0 W/m2
21:56 65.8 °F 52.0 °F 30.17 in WNW 2.0 mph 5.0 mph 61 % 0.00 in 0 W/m2
22:01 65.3 °F 51.9 °F 30.17 in WNW 1.0 mph 4.0 mph 62 % 0.00 in 0 W/m2
22:06 64.8 °F 51.9 °F 30.17 in WNW 1.0 mph 4.0 mph 63 % 0.00 in 0 W/m2
22:07 64.6 °F 51.3 °F 30.17 in WNW 1.0 mph 4.0 mph 62 % 0.00 in 0 W/m2
22:12 64.2 °F 51.4 °F 30.17 in Calm   2.0 mph 63 % 0.00 in 0 W/m2
22:17 63.9 °F 51.4 °F 30.17 in Calm   3.0 mph 64 % 0.00 in 0 W/m2
22:22 63.7 °F 51.7 °F 30.17 in Calm   3.0 mph 65 % 0.00 in 0 W/m2
22:27 63.3 °F 51.3 °F 30.17 in Calm   2.0 mph 65 % 0.00 in 0 W/m2
22:29 63.1 °F 51.6 °F 30.17 in Calm   2.0 mph 66 % 0.00 in 0 W/m2
22:34 62.8 °F 51.2 °F 30.17 in Calm   2.0 mph 66 % 0.00 in 0 W/m2
22:39 62.6 °F 51.5 °F 30.17 in Calm   2.0 mph 67 % 0.00 in 0 W/m2
22:44 62.4 °F 51.3 °F 30.17 in Calm   2.0 mph 67 % 0.00 in 0 W/m2
22:49 62.2 °F 51.5 °F 30.17 in Calm   2.0 mph 68 % 0.00 in 0 W/m2
22:54 62.1 °F 51.4 °F 30.17 in WNW 1.0 mph 4.0 mph 68 % 0.00 in 0 W/m2
22:59 61.7 °F 51.0 °F 30.17 in WNW 2.0 mph 5.0 mph 68 % 0.00 in 0 W/m2
23:04 61.5 °F 51.3 °F 30.17 in WNW 2.0 mph 5.0 mph 69 % 0.00 in 0 W/m2
23:09 61.5 °F 51.3 °F 30.17 in WNW 1.0 mph 5.0 mph 69 % 0.00 in 0 W/m2
23:14 61.3 °F 51.1 °F 30.17 in WNW 1.0 mph 4.0 mph 69 % 0.00 in 0 W/m2
23:19 61.2 °F 51.3 °F 30.17 in WNW 1.0 mph 2.0 mph 70 % 0.00 in 0 W/m2
23:25 61.2 °F 51.3 °F 30.17 in WNW 1.0 mph 4.0 mph 70 % 0.00 in 0 W/m2
23:30 60.8 °F 51.3 °F 30.17 in WNW 1.0 mph 4.0 mph 71 % 0.00 in 0 W/m2
23:35 60.6 °F 51.2 °F 30.17 in WNW 1.0 mph 4.0 mph 71 % 0.00 in 0 W/m2
23:40 60.3 °F 51.2 °F 30.17 in WNW 1.0 mph 5.0 mph 72 % 0.00 in 0 W/m2
23:45 60.1 °F 51.0 °F 30.17 in WNW 1.0 mph 5.0 mph 72 % 0.00 in 0 W/m2
23:50 59.9 °F 50.8 °F 30.17 in WNW 1.0 mph 5.0 mph 72 % 0.00 in 0 W/m2
23:55 59.7 °F 51.0 °F 30.17 in WNW 1.0 mph 5.0 mph 73 % 0.00 in 0 W/m2
Delerius-Weather
Compliments of Weather Underground - 2.25 mb

Data updates at regular intervals.